Onweer radar Meer informatie blitzortung!


Regen radar Meer informatie rain snow radar


Bezoek ook deze websites:

Template documentation
and downloads

And another site


Het weer levert geen direct gevaar op.    Er zijn geen waarschuwingen afgegeven.

Select another period ( hide this area )

Eenheden Periode Custom range Directly to
Metrisch Engels Beide
Dagelijkse Wekelijkse Maandelijkse Jaarlijkse
use both date-selectors for a custom range
previous Dag
With this date

WeatherUnderground graphs for this period ( click here )


Dagelijkse Samenvatting Maandag Jan 27 2020
Tijd Temp. ( °C ) Dew pt. ( °C ) Wind ( km/h ) van Windvlaag ( km/h ) Luchtdruk ( hPa ) Humid.( % ) Rainrate ( cm ) Zonneschijn ( W/m2 )
Hoog9,1 7,7 1,4 ZO ( 3/11 ) 11,3 1008,4 94 0,80 127
Gemiddeld7,1 6,1 0,1 Kalm #151/159 2,4 1005,1 93 0,80 55 #52/159
Laag5,6 4,6 -   0,0 1002,6 91 -  
Dagelijkse Tabular details for Maandag Jan 27 2020
Tijd Temp. ( °C ) Dew pt. ( °C ) Wind ( km/h ) van Windvlaag ( km/h ) Luchtdruk ( hPa ) Humid.( % ) Rainrate ( cm ) Zonneschijn ( W/m2 )
00:00 5,6 4,6   Kalm 3,2 1008,4 93 - -
00:05 5,7 4,7   Kalm 1,6 1008,4 93 - -
00:10 5,8 4,8   Kalm   1008,4 93 - -
00:15 5,8 4,8   Kalm   1008,4 93 - -
00:20 5,9 4,9   Kalm   1008,4 93 - -
00:25 6,0 5,0   Kalm   1008,4 93 - -
00:30 6,1 5,1   Kalm   1008,4 93 - -
00:35 6,1 5,1   Kalm 3,2 1008,0 93 - -
00:40 6,2 5,2   Kalm   1008,0 93 - -
00:45 6,2 5,0   Kalm 3,2 1008,0 92 - -
00:50 6,2 5,0   Kalm   1008,0 92 - -
00:55 6,2 5,0   Kalm   1008,0 92 - -
01:00 6,3 5,1   Kalm 1,6 1007,7 92 - -
01:05 6,3 5,1   Kalm 1,6 1007,7 92 - -
01:10 6,3 5,1   Kalm 3,2 1007,7 92 - -
01:15 6,4 5,2   Kalm 1,6 1007,7 92 - -
01:20 6,4 5,2   Kalm 1,6 1007,7 92 - -
01:25 6,4 5,2   Kalm 3,2 1007,7 92 - -
01:30 6,4 5,2   Kalm 4,8 1007,3 92 - -
01:35 6,4 5,2   Kalm 3,2 1007,3 92 - -
01:40 6,4 5,2   Kalm 3,2 1007,3 92 - -
01:45 6,4 5,2   Kalm 3,2 1007,3 92 - -
01:50 6,4 5,2   Kalm 1,6 1007,3 92 - -
01:55 6,4 5,2   Kalm 3,2 1007,3 92 0,30 -
02:00 6,4 5,2 1,4 ZO 1,6 1007,3 92 0,30 -
02:05 6,4 5,2   Kalm 1,6 1007,0 92 0,30 -
02:10 6,4 5,2   Kalm 3,2 1007,0 92 0,30 -
02:15 6,4 5,4   Kalm 1,6 1007,0 93 0,30 -
02:20 6,4 5,4   Kalm 3,2 1007,0 93 0,50 -
02:25 6,4 5,4   Kalm 3,2 1007,0 93 0,50 -
02:30 6,4 5,4   Kalm 1,6 1006,7 93 0,50 -
02:35 6,4 5,4   Kalm   1006,7 93 0,50 -
02:40 6,4 5,4   Kalm   1006,3 93 0,50 -
02:45 6,4 5,4   Kalm 1,6 1006,7 93 0,50 -
02:50 6,4 5,4   Kalm 1,6 1006,3 93 0,50 -
02:55 6,4 5,4   Kalm   1006,3 93 0,50 -
03:00 6,4 5,4 1,4 WNW 3,2 1006,3 93 0,50 -
03:05 6,4 5,4   Kalm 1,6 1006,3 93 0,50 -
03:10 6,4 5,4   Kalm 1,6 1006,3 93 0,50 -
03:15 6,4 5,4   Kalm 1,6 1006,0 93 0,80 -
03:20 6,4 5,4 1,4 Noorden 3,2 1006,0 93 0,50 -
03:25 6,4 5,4   Kalm   1006,0 93 0,50 -
03:30 6,4 5,4   Kalm   1006,0 93 0,50 -
03:35 6,4 5,4   Kalm 3,2 1006,0 93 0,50 -
03:40 6,4 5,4 1,4 WZW 3,2 1006,0 93 0,50 -
03:45 6,4 5,4   Kalm 3,2 1005,6 93 0,50 -
03:50 6,4 5,4   Kalm 3,2 1005,6 93 0,50 -
03:55 6,5 5,4   Kalm 1,6 1005,6 93 0,50 -
04:00 6,5 5,4   Kalm   1005,6 93 0,50 -
04:05 6,5 5,4   Kalm   1005,6 93 0,50 -
04:10 6,5 5,4   Kalm 1,6 1005,3 93 0,50 -
04:15 6,5 5,6   Kalm   1005,3 94 0,30 -
04:20 6,5 5,6   Kalm 4,8 1005,3 94 0,30 -
04:25 6,5 5,6   Kalm 6,4 1005,3 94 0,30 -
04:30 6,6 5,7   Kalm 4,8 1005,3 94 0,30 -
04:35 6,6 5,7   Kalm 3,2 1005,3 94 0,30 -
04:40 6,6 5,7   Kalm 3,2 1005,0 94 0,30 -
04:45 6,6 5,7   Kalm 3,2 1005,0 94 0,30 -
04:50 6,6 5,7   Kalm 4,8 1005,0 94 - -
04:55 6,6 5,7   Kalm   1005,0 94 - -
05:00 6,6 5,7   Kalm 1,6 1005,0 94 - -
05:05 6,6 5,7   Kalm 3,2 1005,0 94 - -
05:10 6,6 5,7   Kalm 3,2 1005,0 94 - -
05:15 6,7 5,8   Kalm 6,4 1005,0 94 - -
05:20 6,7 5,8   Kalm 8,0 1005,0 94 - -
05:25 6,7 5,8   Kalm 1,6 1005,0 94 - -
05:30 6,7 5,8   Kalm 1,6 1005,0 94 - -
05:35 6,8 5,9 1,4 ZO 3,2 1005,0 94 - -
05:40 6,8 5,9 1,4 ONO 4,8 1005,0 94 - -
05:45 6,8 5,9   Kalm 1,6 1005,0 94 - -
05:50 6,8 5,9   Kalm 6,4 1004,6 94 - -
05:55 6,9 6,0   Kalm 3,2 1004,6 94 - -
06:00 6,9 6,0   Kalm 9,7 1004,6 94 - -
06:05 6,9 6,0   Kalm 6,4 1004,6 94 - -
06:10 6,8 5,9   Kalm 3,2 1004,6 94 - -
06:15 6,9 6,0   Kalm 3,2 1004,6 94 - -
06:20 6,9 6,0   Kalm 4,8 1004,6 94 - -
06:25 6,9 6,0   Kalm 1,6 1004,6 94 - -
06:30 6,9 6,0   Kalm 3,2 1004,6 94 - -
06:35 6,9 6,0   Kalm 1,6 1004,6 94 - -
06:40 6,9 6,0   Kalm 1,6 1004,6 94 0,30 -
06:45 7,0 6,1   Kalm 4,8 1004,6 94 0,30 -
06:50 7,0 6,1 1,4 Oosten 3,2 1004,6 94 0,30 -
06:55 7,0 6,1   Kalm 1,6 1004,6 94 0,30 -
07:00 7,1 6,2   Kalm 1,6 1004,6 94 0,30 -
07:05 7,0 6,1   Kalm 3,2 1004,6 94 0,30 -
07:10 7,1 6,2   Kalm   1004,6 94 0,30 -
07:15 7,1 6,2   Kalm 3,2 1004,6 94 0,30 -
07:20 7,1 6,2 1,4 ZZO 1,6 1004,6 94 0,30 -
07:25 7,1 6,2   Kalm 3,2 1004,6 94 0,30 -
07:30 7,1 6,2   Kalm   1004,6 94 0,30 -
07:35 7,1 6,2   Kalm 1,6 1004,6 94 0,30 -
07:40 7,2 6,3   Kalm 1,6 1004,3 94 - -
07:45 7,2 6,3   Kalm 1,6 1004,3 94 - -
07:50 7,2 6,3   Kalm   1004,3 94 - -
07:55 7,2 6,3   Kalm 4,8 1004,3 94 - -
08:00 7,2 6,3   Kalm   1004,3 94 - -
08:05 7,2 6,3   Kalm 3,2 1004,3 94 - -
08:10 7,2 6,3   Kalm 1,6 1004,6 94 - -
08:15 7,3 6,4   Kalm   1004,3 94 - -
08:20 7,3 6,4   Kalm   1004,3 94 - -
08:25 7,3 6,4   Kalm 3,2 1004,3 94 - -
08:30 7,3 6,4   Kalm 1,6 1004,3 94 - -
08:35 7,3 6,4   Kalm 3,2 1004,3 94 - -
08:40 7,3 6,4   Kalm 1,6 1004,3 94 - -
08:45 7,3 6,4   Kalm   1004,3 94 - -
08:50 7,4 6,5   Kalm 1,6 1004,3 94 - -
08:55 7,3 6,4   Kalm   1004,3 94 - 5
09:00 7,4 6,5   Kalm   1004,3 94 - 9
09:05 7,4 6,5   Kalm 1,6 1004,3 94 - 12
09:10 7,5 6,6   Kalm   1004,3 94 - 12
09:15 7,6 6,7   Kalm   1004,3 94 - 11
09:20 7,6 6,7   Kalm 1,6 1004,3 94 - 18
09:25 7,6 6,7   Kalm 1,6 1004,3 94 - 26
09:30 7,6 6,7   Kalm 1,6 1004,3 94 - 26
09:35 7,7 6,8   Kalm   1004,3 94 - 25
09:40 7,7 6,8   Kalm 1,6 1003,9 94 - 16
09:45 7,7 6,8   Kalm   1003,9 94 - 25
09:50 7,7 6,8   Kalm 3,2 1003,9 94 - 14
09:55 7,7 6,8   Kalm 1,6 1003,9 94 - 23
10:00 7,8 6,9   Kalm 1,6 1003,9 94 - 40
10:05 7,8 6,9   Kalm   1003,9 94 - 58
10:10 7,8 6,9   Kalm 1,6 1003,9 94 - 40
10:15 7,9 7,0   Kalm   1003,9 94 - 46
10:20 7,9 7,0   Kalm 1,6 1003,9 94 - 46
10:25 7,9 7,0   Kalm 3,2 1003,9 94 - 56
10:30 7,9 7,0   Kalm 3,2 1003,6 94 - 84
10:35 8,1 7,2   Kalm   1003,6 94 - 88
10:40 8,1 7,2   Kalm   1003,9 94 - 49
10:45 8,1 7,2   Kalm 1,6 1003,9 94 - 35
10:50 8,1 7,2   Kalm 4,8 1003,9 94 - 28
10:55 8,1 7,2   Kalm 3,2 1003,9 94 - 49
11:00 8,1 7,2   Kalm   1003,9 94 - 58
11:05 8,1 7,2   Kalm 3,2 1003,9 94 - 42
11:10 8,1 7,2   Kalm 1,6 1003,9 94 - 44
11:15 8,1 7,2   Kalm 3,2 1003,9 94 - 40
11:20 8,1 7,2   Kalm 3,2 1003,9 94 - 32
11:25 8,1 7,2   Kalm   1003,6 94 - 30
11:30 8,2 7,3   Kalm 1,6 1003,6 94 - 56
11:35 8,2 7,3   Kalm 3,2 1003,6 94 - 60
11:40 8,2 7,3   Kalm   1003,6 94 0,30 40
11:45 8,2 7,3   Kalm 4,8 1003,6 94 0,30 69
11:50 8,3 7,4   Kalm 6,4 1003,6 94 0,30 104
11:55 8,5 7,6   Kalm 3,2 1003,6 94 0,30 98
12:00 8,6 7,5   Kalm 3,2 1003,3 93 0,30 111
12:05 8,6 7,5   Kalm 8,0 1003,3 93 0,30 113
12:10 8,7 7,6   Kalm 6,4 1003,3 93 0,30 100
12:15 8,7 7,6   Kalm 3,2 1003,3 93 0,30 69
12:20 8,7 7,6   Kalm 1,6 1003,3 93 0,30 58
12:25 8,7 7,5   Kalm   1002,9 92 0,30 56
12:30 8,7 7,5   Kalm 4,8 1002,9 92 0,30 63
12:35 8,7 7,5   Kalm   1002,9 92 0,30 70
12:40 8,7 7,5   Kalm 9,7 1002,9 92 - 74
12:45 8,7 7,5   Kalm 11,3 1002,9 92 - 72
12:50 8,8 7,6   Kalm 6,4 1002,9 92 - 95
12:55 8,8 7,6   Kalm 1,6 1002,9 92 - 120
13:00 8,9 7,5   Kalm 8,0 1002,6 91 - 127
13:05 9,0 7,6   Kalm 4,8 1002,9 91 - 123
13:10 9,1 7,7   Kalm   1002,6 91 - 95
Dagelijkse Samenvatting Maandag Jan 27 2020
Tijd Temp. ( °C ) Dew pt. ( °C ) Wind ( km/h ) van Windvlaag ( km/h ) Luchtdruk ( hPa ) Humid.( % ) Rainrate ( cm ) Zonneschijn ( W/m2 )
Hoog9,1 7,7 1,4 ZO ( 3/11 ) 11,3 1008,4 94 0,80 127
Gemiddeld7,1 6,1 0,1 Kalm #151/159 2,4 1005,1 93 0,80 55 #52/159
Laag5,6 4,6 -   0,0 1002,6 91 -  
Dagelijkse Tabular details for Maandag Jan 27 2020
Tijd Temp. ( °C ) Dew pt. ( °C ) Wind ( km/h ) van Windvlaag ( km/h ) Luchtdruk ( hPa ) Humid.( % ) Rainrate ( cm ) Zonneschijn ( W/m2 )
00:00 5,6 4,6   Kalm 3,2 1008,4 93 - -
00:05 5,7 4,7   Kalm 1,6 1008,4 93 - -
00:10 5,8 4,8   Kalm   1008,4 93 - -
00:15 5,8 4,8   Kalm   1008,4 93 - -
00:20 5,9 4,9   Kalm   1008,4 93 - -
00:25 6,0 5,0   Kalm   1008,4 93 - -
00:30 6,1 5,1   Kalm   1008,4 93 - -
00:35 6,1 5,1   Kalm 3,2 1008,0 93 - -
00:40 6,2 5,2   Kalm   1008,0 93 - -
00:45 6,2 5,0   Kalm 3,2 1008,0 92 - -
00:50 6,2 5,0   Kalm   1008,0 92 - -
00:55 6,2 5,0   Kalm   1008,0 92 - -
01:00 6,3 5,1   Kalm 1,6 1007,7 92 - -
01:05 6,3 5,1   Kalm 1,6 1007,7 92 - -
01:10 6,3 5,1   Kalm 3,2 1007,7 92 - -
01:15 6,4 5,2   Kalm 1,6 1007,7 92 - -
01:20 6,4 5,2   Kalm 1,6 1007,7 92 - -
01:25 6,4 5,2   Kalm 3,2 1007,7 92 - -
01:30 6,4 5,2   Kalm 4,8 1007,3 92 - -
01:35 6,4 5,2   Kalm 3,2 1007,3 92 - -
01:40 6,4 5,2   Kalm 3,2 1007,3 92 - -
01:45 6,4 5,2   Kalm 3,2 1007,3 92 - -
01:50 6,4 5,2   Kalm 1,6 1007,3 92 - -
01:55 6,4 5,2   Kalm 3,2 1007,3 92 0,30 -
02:00 6,4 5,2 1,4 ZO 1,6 1007,3 92 0,30 -
02:05 6,4 5,2   Kalm 1,6 1007,0 92 0,30 -
02:10 6,4 5,2   Kalm 3,2 1007,0 92 0,30 -
02:15 6,4 5,4   Kalm 1,6 1007,0 93 0,30 -
02:20 6,4 5,4   Kalm 3,2 1007,0 93 0,50 -
02:25 6,4 5,4   Kalm 3,2 1007,0 93 0,50 -
02:30 6,4 5,4   Kalm 1,6 1006,7 93 0,50 -
02:35 6,4 5,4   Kalm   1006,7 93 0,50 -
02:40 6,4 5,4   Kalm   1006,3 93 0,50 -
02:45 6,4 5,4   Kalm 1,6 1006,7 93 0,50 -
02:50 6,4 5,4   Kalm 1,6 1006,3 93 0,50 -
02:55 6,4 5,4   Kalm   1006,3 93 0,50 -
03:00 6,4 5,4 1,4 WNW 3,2 1006,3 93 0,50 -
03:05 6,4 5,4   Kalm 1,6 1006,3 93 0,50 -
03:10 6,4 5,4   Kalm 1,6 1006,3 93 0,50 -
03:15 6,4 5,4   Kalm 1,6 1006,0 93 0,80 -
03:20 6,4 5,4 1,4 Noorden 3,2 1006,0 93 0,50 -
03:25 6,4 5,4   Kalm   1006,0 93 0,50 -
03:30 6,4 5,4   Kalm   1006,0 93 0,50 -
03:35 6,4 5,4   Kalm 3,2 1006,0 93 0,50 -
03:40 6,4 5,4 1,4 WZW 3,2 1006,0 93 0,50 -
03:45 6,4 5,4   Kalm 3,2 1005,6 93 0,50 -
03:50 6,4 5,4   Kalm 3,2 1005,6 93 0,50 -
03:55 6,5 5,4   Kalm 1,6 1005,6 93 0,50 -
04:00 6,5 5,4   Kalm   1005,6 93 0,50 -
04:05 6,5 5,4   Kalm   1005,6 93 0,50 -
04:10 6,5 5,4   Kalm 1,6 1005,3 93 0,50 -
04:15 6,5 5,6   Kalm   1005,3 94 0,30 -
04:20 6,5 5,6   Kalm 4,8 1005,3 94 0,30 -
04:25 6,5 5,6   Kalm 6,4 1005,3 94 0,30 -
04:30 6,6 5,7   Kalm 4,8 1005,3 94 0,30 -
04:35 6,6 5,7   Kalm 3,2 1005,3 94 0,30 -
04:40 6,6 5,7   Kalm 3,2 1005,0 94 0,30 -
04:45 6,6 5,7   Kalm 3,2 1005,0 94 0,30 -
04:50 6,6 5,7   Kalm 4,8 1005,0 94 - -
04:55 6,6 5,7   Kalm   1005,0 94 - -
05:00 6,6 5,7   Kalm 1,6 1005,0 94 - -
05:05 6,6 5,7   Kalm 3,2 1005,0 94 - -
05:10 6,6 5,7   Kalm 3,2 1005,0 94 - -
05:15 6,7 5,8   Kalm 6,4 1005,0 94 - -
05:20 6,7 5,8   Kalm 8,0 1005,0 94 - -
05:25 6,7 5,8   Kalm 1,6 1005,0 94 - -
05:30 6,7 5,8   Kalm 1,6 1005,0 94 - -
05:35 6,8 5,9 1,4 ZO 3,2 1005,0 94 - -
05:40 6,8 5,9 1,4 ONO 4,8 1005,0 94 - -
05:45 6,8 5,9   Kalm 1,6 1005,0 94 - -
05:50 6,8 5,9   Kalm 6,4 1004,6 94 - -
05:55 6,9 6,0   Kalm 3,2 1004,6 94 - -
06:00 6,9 6,0   Kalm 9,7 1004,6 94 - -
06:05 6,9 6,0   Kalm 6,4 1004,6 94 - -
06:10 6,8 5,9   Kalm 3,2 1004,6 94 - -
06:15 6,9 6,0   Kalm 3,2 1004,6 94 - -
06:20 6,9 6,0   Kalm 4,8 1004,6 94 - -
06:25 6,9 6,0   Kalm 1,6 1004,6 94 - -
06:30 6,9 6,0   Kalm 3,2 1004,6 94 - -
06:35 6,9 6,0   Kalm 1,6 1004,6 94 - -
06:40 6,9 6,0   Kalm 1,6 1004,6 94 0,30 -
06:45 7,0 6,1   Kalm 4,8 1004,6 94 0,30 -
06:50 7,0 6,1 1,4 Oosten 3,2 1004,6 94 0,30 -
06:55 7,0 6,1   Kalm 1,6 1004,6 94 0,30 -
07:00 7,1 6,2   Kalm 1,6 1004,6 94 0,30 -
07:05 7,0 6,1   Kalm 3,2 1004,6 94 0,30 -
07:10 7,1 6,2   Kalm   1004,6 94 0,30 -
07:15 7,1 6,2   Kalm 3,2 1004,6 94 0,30 -
07:20 7,1 6,2 1,4 ZZO 1,6 1004,6 94 0,30 -
07:25 7,1 6,2   Kalm 3,2 1004,6 94 0,30 -
07:30 7,1 6,2   Kalm   1004,6 94 0,30 -
07:35 7,1 6,2   Kalm 1,6 1004,6 94 0,30 -
07:40 7,2 6,3   Kalm 1,6 1004,3 94 - -
07:45 7,2 6,3   Kalm 1,6 1004,3 94 - -
07:50 7,2 6,3   Kalm   1004,3 94 - -
07:55 7,2 6,3   Kalm 4,8 1004,3 94 - -
08:00 7,2 6,3   Kalm   1004,3 94 - -
08:05 7,2 6,3   Kalm 3,2 1004,3 94 - -
08:10 7,2 6,3   Kalm 1,6 1004,6 94 - -
08:15 7,3 6,4   Kalm   1004,3 94 - -
08:20 7,3 6,4   Kalm   1004,3 94 - -
08:25 7,3 6,4   Kalm 3,2 1004,3 94 - -
08:30 7,3 6,4   Kalm 1,6 1004,3 94 - -
08:35 7,3 6,4   Kalm 3,2 1004,3 94 - -
08:40 7,3 6,4   Kalm 1,6 1004,3 94 - -
08:45 7,3 6,4   Kalm   1004,3 94 - -
08:50 7,4 6,5   Kalm 1,6 1004,3 94 - -
08:55 7,3 6,4   Kalm   1004,3 94 - 5
09:00 7,4 6,5   Kalm   1004,3 94 - 9
09:05 7,4 6,5   Kalm 1,6 1004,3 94 - 12
09:10 7,5 6,6   Kalm   1004,3 94 - 12
09:15 7,6 6,7   Kalm   1004,3 94 - 11
09:20 7,6 6,7   Kalm 1,6 1004,3 94 - 18
09:25 7,6 6,7   Kalm 1,6 1004,3 94 - 26
09:30 7,6 6,7   Kalm 1,6 1004,3 94 - 26
09:35 7,7 6,8   Kalm   1004,3 94 - 25
09:40 7,7 6,8   Kalm 1,6 1003,9 94 - 16
09:45 7,7 6,8   Kalm   1003,9 94 - 25
09:50 7,7 6,8   Kalm 3,2 1003,9 94 - 14
09:55 7,7 6,8   Kalm 1,6 1003,9 94 - 23
10:00 7,8 6,9   Kalm 1,6 1003,9 94 - 40
10:05 7,8 6,9   Kalm   1003,9 94 - 58
10:10 7,8 6,9   Kalm 1,6 1003,9 94 - 40
10:15 7,9 7,0   Kalm   1003,9 94 - 46
10:20 7,9 7,0   Kalm 1,6 1003,9 94 - 46
10:25 7,9 7,0   Kalm 3,2 1003,9 94 - 56
10:30 7,9 7,0   Kalm 3,2 1003,6 94 - 84
10:35 8,1 7,2   Kalm   1003,6 94 - 88
10:40 8,1 7,2   Kalm   1003,9 94 - 49
10:45 8,1 7,2   Kalm 1,6 1003,9 94 - 35
10:50 8,1 7,2   Kalm 4,8 1003,9 94 - 28
10:55 8,1 7,2   Kalm 3,2 1003,9 94 - 49
11:00 8,1 7,2   Kalm   1003,9 94 - 58
11:05 8,1 7,2   Kalm 3,2 1003,9 94 - 42
11:10 8,1 7,2   Kalm 1,6 1003,9 94 - 44
11:15 8,1 7,2   Kalm 3,2 1003,9 94 - 40
11:20 8,1 7,2   Kalm 3,2 1003,9 94 - 32
11:25 8,1 7,2   Kalm   1003,6 94 - 30
11:30 8,2 7,3   Kalm 1,6 1003,6 94 - 56
11:35 8,2 7,3   Kalm 3,2 1003,6 94 - 60
11:40 8,2 7,3   Kalm   1003,6 94 0,30 40
11:45 8,2 7,3   Kalm 4,8 1003,6 94 0,30 69
11:50 8,3 7,4   Kalm 6,4 1003,6 94 0,30 104
11:55 8,5 7,6   Kalm 3,2 1003,6 94 0,30 98
12:00 8,6 7,5   Kalm 3,2 1003,3 93 0,30 111
12:05 8,6 7,5   Kalm 8,0 1003,3 93 0,30 113
12:10 8,7 7,6   Kalm 6,4 1003,3 93 0,30 100
12:15 8,7 7,6   Kalm 3,2 1003,3 93 0,30 69
12:20 8,7 7,6   Kalm 1,6 1003,3 93 0,30 58
12:25 8,7 7,5   Kalm   1002,9 92 0,30 56
12:30 8,7 7,5   Kalm 4,8 1002,9 92 0,30 63
12:35 8,7 7,5   Kalm   1002,9 92 0,30 70
12:40 8,7 7,5   Kalm 9,7 1002,9 92 - 74
12:45 8,7 7,5   Kalm 11,3 1002,9 92 - 72
12:50 8,8 7,6   Kalm 6,4 1002,9 92 - 95
12:55 8,8 7,6   Kalm 1,6 1002,9 92 - 120
13:00 8,9 7,5   Kalm 8,0 1002,6 91 - 127
13:05 9,0 7,6   Kalm 4,8 1002,9 91 - 123
13:10 9,1 7,7   Kalm   1002,6 91 - 95

Download your copy of this data-set  here

Our weather-data as stored at Weather Underground. Script ontwikkeld door Jim McMurry. Aangepast voor de template door Leuven-Template.eu

U vindt ons ook hier:

UK Metoffice

Weather Underground